Regional Weather Roundup
Issued by NWS Raleigh/Durham, NC

Home | Current Version | Previous Version | Text Only | Print | Product List | Glossary On
Versions: 1 2 3 4 5 6 7 8 9 10 11 12 13 14 15 16 17 18 19 20 21 22 23 24 25 26 27 28 29 30 31 32 33 34 35 36 37 38 39 40 41 42 43 44 45 46 47 48 49 50
170
ASUS42 KRAH 260310
RWRRAH
NORTH CAROLINA WEATHER ROUNDUP
NATIONAL WEATHER SERVICE RALEIGH NC
1100 PM EDT WED MAY 25 2016

NOTE: "FAIR" INDICATES FEW OR NO CLOUDS BELOW 12,000 FEET WITH NO
SIGNIFICANT WEATHER AND/OR OBSTRUCTIONS TO VISIBILITY.

NCZ001-053-055-056-065-067-260400-
WESTERN NORTH CAROLINA

CITY           SKY/WX    TMP DP  RH WIND       PRES   REMARKS
ASHEVILLE      CLOUDY    69  56  62 CALM      30.26R
JEFFERSON      CLOUDY    65  55  68 CALM      30.29S
MORGANTON      CLEAR     63  61  93 CALM      30.24R FOG
HICKORY        CLEAR     72  58  61 S6        30.20R
RUTHERFORDTON  CLOUDY    70  61  73 CALM      30.21S
MOUNT AIRY     CLEAR     71  62  74 CALM      30.21S
BOONE          CLOUDY    62  55  77 CALM      30.29S
$$

NCZ021-022-025-041-071-084-088-260400-
CENTRAL NORTH CAROLINA

CITY           SKY/WX    TMP DP  RH WIND       PRES   REMARKS
CHARLOTTE      CLEAR     71  59  65 S5        30.19S
GREENSBORO     PTCLDY    72  57  59 S5        30.18R
WINSTON-SALEM  CLEAR     70  58  65 CALM      30.20R
RALEIGH-DURHAM PTCLDY    69  58  67 CALM      30.17R
FORT BRAGG     CLEAR     76  62  61 S5        30.16S
FAYETTEVILLE   PTCLDY    74  62  66 S8        30.17R
BURLINGTON     CLEAR     66  58  75 CALM      30.18R
LAURINBURG     CLEAR     74  62  66 S8        30.19R
$$

NCZ011-015-027-028-043-044-047-080-103-260400-
NORTHEASTERN NORTH CAROLINA

CITY           SKY/WX    TMP DP  RH WIND       PRES   REMARKS
ROCKY MT-WILSO CLEAR     72  61  68 S7        30.17R
GREENVILLE     CLEAR     72  61  68 S8        30.19R
WASHINGTON     PTCLDY    72  58  62 S5        30.19R
ELIZABETH CITY CLEAR     73  60  63 S10       30.17R
MANTEO         CLEAR     71  66  85 S7        30.19S
CAPE HATTERAS  CLEAR     71  66  84 SW9       30.21R
$$

NCZ078-087-090-091-093-098-101-260400-
SOUTHEASTERN NORTH CAROLINA

CITY           SKY/WX    TMP DP  RH WIND       PRES   REMARKS
LUMBERTON      PTCLDY    73  63  70 S3        30.18R
GOLDSBORO      CLEAR     74  63  70 S8        30.17R
KINSTON        CLEAR     72  61  68 S7        30.19R
KENANSVILLE    CLEAR     71  60  68 CALM      30.20S
NEW BERN       PTCLDY    70  63  78 S8        30.21R
CHERRY POINT   CLEAR     70  66  87 S7        30.21S
BEAUFORT       CLEAR     72  68  87 S7        30.21R
JACKSONVILLE   CLEAR     70  65  84 S6        30.20R
WILMINGTON     CLEAR     71  66  84 S6        30.21R
$$





USA.gov is the U.S. government's official web portal to all federal, state and local government web resources and services.